Location: Newark
(36.0797°N, 3.9744°E)
Time: 07:09:01
(UTC+00:00)

Vanguard 2 Rocket - Pass Details

Date: 17 December 2019
Orbit: 554 x 3326 km, 32.9° (Epoch: 18 January)

Event Time Altitude Azimuth Distance (km) Brightness Sun altitude
Rises 22:14:58 0° 277° (W) 4,997 11.0 -67.6°
Enters shadow 22:17:04 - 272° (W) 4,348 10.6 -68.0°
Reaches altitude 10° 22:20:27 10° 258° (WSW) 3,378 - -68.6°
Maximum altitude 22:24:38 15° 226° (SW) 2,538 - -69.3°
Drops below altitude 10° 22:27:57 10° 192° (SSW) 2,533 - -69.9°
Sets 22:31:09 0° 168° (SSE) 3,149 - -70.4°
